Other Public Products
Issued by NWS Charleston, SC

Current Version | Previous Version | Text Only | Print | Product List | Glossary Off
Versions: 1 2 3 4 5 6 7 8 9 10 11 12 13 14 15 16 17 18 19 20 21 22 23 24 25 26 27 28 29 30 31 32 33 34 35 36 37 38 39 40 41 42 43 44 45 46 47 48 49 50

000
FPUS82 KCHS 231712
OPUCHS

TEST...KCHS/KSAV Gateway Observations...TEST
National Weather Service Charleston SC
1200 PM EST MON JAN 23 2017

NOTE: "fair" indicates few or no clouds below 12,000 feet with no
significant weather and/or obstructions to visibility.

SCZ050-WAZ558-NCZ071-TXZ119-213-PAZ071-DCZ001-FLZ074-172-MI076-
NYZ176-178-MAZ016-IL014-TNZ027-NJZ106-GAZ044-MD014-231800-
...Gateway Observations for Charleston International...

CITY           SKY/WX    TMP DP  RH WIND       PRES   REMARKS
Chas Airport   PTSUNNY   57  50  77 W12       29.30S
Seattle        MOCLDY    36  33  89 N5        29.77R WCI  32
Charlotte      PTSUNNY   52  45  77 SW9       29.28F
Dallas DFW     SUNNY     54  33  45 CALM      29.97F
Dallas Love    SUNNY     54  34  46 VRB3      29.99F
Philladelphia  LGT RAIN  40  36  86 E28G45    29.62F WCI  29
Wash National  LGT RAIN  44  41  89 NE32G47   29.42F FOG
Baltimore      LGT RAIN  41  40  96 NE26G37   29.48F FOG
Miami          MOSUNNY   79  57  46 W15G30    29.63F
Detroit        LGT RAIN  43  41  93 N9        29.68F FOG
Newark         CLOUDY    41  31  67 NE30G41   29.78F
Laguardia      CLOUDY    42  30  62 E35G46    29.79F
J F K          CLOUDY    42  34  73 NE26G35   29.79F
Boston Logan   FLURRIES  36  34  92 NE25G32   30.02F WCI  24
Ft. Lauderdale PTSUNNY   75  59  57 W24G31    29.60F
Chicago O`Hare CLOUDY    39  35  86 N7        29.77S WCI  34
Chicago Midway CLOUDY    40  34  79 N13G22    29.77S WCI  32
Houston Bush   SUNNY     62  32  32 NW12      30.02F
Houston Hobby  SUNNY     63  30  28 NW12      30.02F
Nashville      CLOUDY    47  41  80 NW20      29.66R
Atlanta        CLOUDY    55  51  86 NW22G33   29.41R

$$

GAZ044-118-TXZ119-213-NCZ071-DCZ001-MDZ014-506-PAZ021-071-NJZ106-
NYZ176-178-MAZ106-OHZ011-021-055-MIZ076-KYZ091-ILZ014-INZ047-
MNZ060-231800-
...Gateway Observations for Savannah International...

CITY           SKY/WX    TMP DP  RH WIND       PRES   REMARKS
Savannah Arpt  CLOUDY    57  50  77 W15G24    29.34S
Atlanta        CLOUDY    55  51  86 NW22G33   29.41R
Charlotte      PTSUNNY   52  45  77 SW9       29.28F
Dallas DFW     SUNNY     54  33  45 CALM      29.97F
Houston Bush   SUNNY     62  32  32 NW12      30.02F
Wash National  LGT RAIN  44  41  89 NE32G47   29.42F FOG
Wash Dulles    LGT RAIN  42  38  85 NE21G39   29.44S FOG
Baltimore      LGT RAIN  41  40  96 NE26G37   29.48F FOG
Philadelphia   LGT RAIN  40  36  86 E28G45    29.62F WCI  29
Newark         CLOUDY    41  31  67 NE30G41   29.78F
Laguardia      CLOUDY    42  30  62 E35G46    29.79F
J F K          CLOUDY    42  34  73 NE26G35   29.79F
Boston         FLURRIES  36  34  92 NE25G32   30.02F WCI  24
Pittsburg      LGT RAIN  44  41  89 E16       29.53F
Akron          CLOUDY    50  42  74 E15       29.55F
Cleveland      FOG       43  39  86 N10       29.63F VSB 1/2
Cincinnati     CLOUDY    47  45  93 N17G25    29.54S FOG
Columbus       DRIZZLE   49  48  95 NE9G17    29.50F
Detroit        LGT RAIN  43  41  93 N9        29.68F FOG
Chicago O`Hare CLOUDY    39  35  86 N7        29.77S WCI  34
Minneapolis    CLOUDY    34  30  85 SW6       29.84R WCI  29
Indianapolis   CLOUDY    43  41  93 NW15      29.66F FOG

$$




USA.gov is the U.S. government's official web portal to all federal, state and local government web resources and services.